Location: Aiyede
(8.4833°N, 4.4500°E)
Time: 12:38:52
(UTC+00:00)

Envisat - Pass Details

Date: 29 November 2020
Orbit: 764 x 766 km, 98.1° (Epoch: 18 January)

Event Time Altitude Azimuth Distance (km) Brightness Sun altitude
Rises 05:02:41 0° 18° (NNE) 3,218 6.2 -9.5°
Reaches altitude 10° 05:05:00 10° 21° (NNE) 2,293 5.5 -9.0°
Maximum altitude 05:10:00 62° 101° (ESE) 858 3.6 -7.9°
Drops below altitude 10° 05:14:59 10° 182° (S) 2,295 5.7 -6.7°
Sets 05:17:19 0° 185° (S) 3,221 6.4 -6.2°
